Regional Weather Roundup
Issued by NWS Lake Charles, LA

Home | Current Version | Previous Version | Text Only | Print | Product List | Glossary On
Versions: 1 2 3 4 5 6 7 8 9 10 11 12 13 14 15 16 17 18 19 20 21 22 23 24 25 26 27 28 29 30 31 32 33 34 35 36 37 38 39 40 41 42 43 44 45 46 47 48 49 50
000
ASUS44 KLCH 190810
RWRLCH
RWRLCH
REGIONAL WEATHER ROUNDUP
NATIONAL WEATHER SERVICE LAKE CHARLES LA
200 AM CST FRI DEC 19 2014

Note: "fair" indicates few or no clouds below 12,000 feet with no
significant weather and/or obstructions to visibility.


ACROSS SOUTHEAST TEXAS

CITY           SKY/WX    TMP DP  RH WIND       PRES   REMARKS
BEAUMONT       RAIN      57  56  96 N13       30.03R FOG
BEAUMONT CITY  CLOUDY    55  55 100 NE14      30.03F
ORANGE         TSTM      56  55  98 NW9       30.08R
JASPER         RAIN      52  51  97 CALM      30.10R
$$

ACROSS CENTRAL LOUISIANA

CITY           SKY/WX    TMP DP  RH WIND       PRES   REMARKS
LEESVILLE      CLOUDY    50  50 100 NE7       30.08S THUNDER FOG
FULLERTON      CLOUDY    53  50  89 VRB3      30.09R FOG
ALEXANDRIA INT CLOUDY    51  50  96 N8        30.08F FOG
ESLER FIELD    CLOUDY    51  49  92 NE5       30.10F
DERIDDER       CLOUDY    52  51  95 NE3       30.11S THUNDER FOG
OAKDALE        CLOUDY    52  51  95 N5        30.08R FOG
OPELOUSAS      CLOUDY    54  53  97 NE8       30.05F FOG
$$

ACROSS SOUTHWEST AND SOUTH CENTRAL LOUISIANA

CITY           SKY/WX    TMP DP  RH WIND       PRES   REMARKS
SULPHUR        TSTM      57  56  96 NE8       30.05F
LAKE CHARLES   LGT RAIN  56  54  93 N9        30.04S
CHENNAULT INT  LGT RAIN  55  54  96 N5        30.06R
CAMERON PHI    CLOUDY    57  55  94 E8        30.05S FOG
DEQUINCY       TSTM      53  53 100 N8        30.06R
JENNINGS       CLOUDY    55  54  95 E7        30.05R THUNDER
LAFAYETTE      LGT RAIN  57  55  93 VRB3      30.05F FOG
NEW IBERIA     CLOUDY    60  56  86 E12       30.03F
ABBEVILLE      LGT RAIN  58  56  94 E3        30.03F
PATTERSON      CLOUDY    57  55  94 E7        30.06F
SALT POINT       N/A     63  59  87 E6        30.02F
$$

SELECTED SITES ACROSS THE REGION

CITY           SKY/WX    TMP DP  RH WIND       PRES   REMARKS
HOUSTON BUSH   TSTM      57  57 100 NE10      30.01F FOG
HOUSTON HOBBY  LGT RAIN  59  57  94 N15       30.03R FOG
GALVESTON      CLOUDY    62  62 100 E12       30.01R
COLLEGE STAT   HVY RAIN  52  52 100 N9        30.08R FOG
CONROE         LGT RAIN  55  54  96 NE10      30.01F
HUNTSVILLE     HVY RAIN  53  52  96 NE5       30.07F FOG
LUFKIN         LGT RAIN  54  49  83 E8        30.07F
SHREVEPORT     CLOUDY    50  47  89 NE10      30.11F
MONROE         CLOUDY    49  47  93 NE8       30.16F
NATCHEZ MS     CLOUDY    48  46  93 NE7       30.12F
BATON ROUGE    CLOUDY    54  53  97 NE7       30.08F FOG
N.O. INTL ARPT CLOUDY    58  52  80 E9        30.08F
SLIDELL        CLOUDY    55  50  83 E7        30.10F
$$

MARINE REPORTS

STATION/POSITION TIME  TEMP    WIND        PRES    VSBY  WAVE
                       AIR SEA DIR/SP/G                  HT/PER
                 (UTC) (F)     (DEG/KT/KT) (MB)    (MI)  (FT/S)
BUOY 30 S HIGH I 0800   64 65   90/ 14/ 17 1015.1S         4/ 4
SEA RIM ST PARK  0800   56      80/ 10/ 11 1016.8F
PORT ARTHUR      0800      62   80/  8/ 13 1016.7F
SABINE PASS N    0800   57 61   70/  8/ 10 1016.3F
TEXAS POINT      NOT AVBL
CALCASIEU PASS   0800   57 60  100/  9/ 12   N/A
LK CHARLES BEACH 0800   55 62              1017.8R
MARSH ISLAND     NOT AVBL
FRESH WATER LOCK 0800   60 61   70/  7/ 11 1016.4F
AMERADA PASS     0800   59 52   90/  8/ 11 1017.2F
$$



USA.gov is the U.S. government's official web portal to all federal, state and local government web resources and services.